Regional Weather Roundup
Issued by NWS

Home | Current Version | Previous Version | Text Only | Print | Product List | Glossary Off
Versions: 1 2 3 4 5 6 7 8 9 10 11 12 13 14 15 16 17 18 19 20 21 22 23 24 25 26 27 28 29 30 31 32 33 34 35 36 37 38 39 40 41 42 43 44 45 46 47 48 49 50

810
ASUS45 KSLC 290610
RWRUT

UTAH REGIONAL WEATHER ROUNDUP
NATIONAL WEATHER SERVICE SALT LAKE CITY UT
1200 AM MDT THU SEP 29 2016

UTZ001>011-023>025-290700-

NORTHERN UTAH

CITY           SKY/WX    TMP DP  RH WIND       PRES   REMARKS
BRIGHAM CITY     N/A     62  52  69 N5        30.19F
HILL AFB       MOCLDY    63  48  59 SE12      30.21S
LOGAN          CLOUDY    60  51  72 S6        30.21S
OGDEN          MOCLDY    60  52  74 S9        30.19S
PROVO AIRPORT  NOT AVBL
SALT LAKE CITY MOCLDY    65  54  67 W5        30.21R
VERNAL         CLOUDY    60  47  61 NW7       30.27R
WENDOVER       CLOUDY   N/A N/A N/A CALM        N/A
HEBER CITY     CLOUDY    57  45  62 CALM      30.26R
WEST JORDAN    MOCLDY    65  49  57 NW5       30.22S

$$

UTZ012>022-026-027-290700-

SOUTHERN/CENTRAL UTAH

CITY           SKY/WX    TMP DP  RH WIND       PRES   REMARKS
BLANDING       MOCLDY    60  46  60 NE5       30.42R
BRYCE CANYON   CLOUDY    49  44  83 SE7       30.42S
CEDAR CITY     PTCLDY    58  47  66 SW9       30.26S
DELTA          PTCLDY    57  45  62 SE7       30.21S
MILFORD        MOCLDY    62  46  55 S9        30.23R
MOAB/CYNLANDS  MOCLDY    71  45  39 CALM      30.22S
PRICE          CLOUDY    65  39  38 E7        30.31R
ST GEORGE      CLOUDY    70  48  46 S3        30.17R

$$

REGIONAL REPORTS     COLORADO/ARIZONA

CITY           SKY/WX    TMP DP  RH WIND       PRES   REMARKS
CRAIG, CO      PTCLDY    48  38  68 CALM      30.31S
GRAND JUNCTION MOCLDY    71  37  28 N9        30.24R
RIFLE          CLOUDY    58  43  57 CALM      30.28R
MONTROSE       CLOUDY    62  42  47 S8        30.32R
CORTEZ         CLOUDY    60  49  66 SW8       30.36R
PAGE, AZ       CLOUDY    63  58  83 CALM      30.25F
GRAND CANYON   MOCLDY    54  51  90 CALM      30.36R
KINGMAN        PTCLDY    63  45  51 S3        30.14S
FLAGSTAFF      LGT RAIN  50  50 100 CALM      30.38S

$$

REGIONAL REPORTS    NEVADA/IDAHO/WYOMING

CITY           SKY/WX    TMP DP  RH WIND       PRES   REMARKS
LAS VEGAS, NV  PTCLDY    76  46  34 S3        30.05R
ELY            CLOUDY    57  41  55 S12       30.26S
ELKO           CLOUDY    64  38  38 CALM      30.14R
POCATELLO, ID  CLOUDY    68  45  43 S24G38    30.16S
BURLEY         CLEAR     60  42  51 S10       30.10R
EVANSTON, WY   CLOUDY    53  41  63 S6        30.35R
ROCK SPRINGS   CLOUDY    55  37  50 E7        30.33S

$$




USA.gov is the U.S. government's official web portal to all federal, state and local government web resources and services.